Location: Unspecified
(0.0000°N, 0.0000°E)
Time: 22:06:34
(UTC+00:00)

ISS - Pass Details

Date: 12 February 2024
Orbit: 415 x 417 km, 51.6° (Epoch: 20 February)

Event Time Altitude Azimuth Distance (km) Brightness Sun altitude
Exits shadow 04:08:15 - 147° (SSE) 1,562 -0.3 -30.5°
Reaches altitude 10° 04:09:01 10° 134° (SE) 1,487 -0.3 -30.3°
Maximum altitude 04:09:28 10° 126° (SE) 1,473 -0.2 -30.2°
Drops below altitude 10° 04:09:56 10° 118° (ESE) 1,486 -0.1 -30.1°
Sets 04:13:49 0° 73° (ENE) 2,346 0.9 -29.1°
